Time,TemperatureF,DewpointF,PressureIn,WindDirection,WindDirectionDegrees,WindSpeedMPH,WindSpeedGustMPH,Humidity,HourlyPrecipIn,Conditions,Clouds,dailyrainin,SolarRadiationWatts/m^2,SoftwareType,DateUTC
2013-05-05 00:11:00,79.0,27.0,-100.00,SW,219,9.0,14.0,15,0.00,,,0.00,0.000000,,2013-05-05 07:11:00,
2013-05-05 00:21:00,79.0,27.0,-100.00,SW,219,9.0,14.0,15,0.00,,,0.00,0.000000,,2013-05-05 07:21:00,
2013-05-05 00:32:00,79.0,27.0,-100.00,SW,219,9.0,14.0,15,0.00,,,0.00,0.000000,,2013-05-05 07:32:00,
2013-05-05 00:42:00,79.0,27.0,-100.00,SW,219,9.0,14.0,15,0.00,,,0.00,0.000000,,2013-05-05 07:42:00,
2013-05-05 01:11:00,78.0,27.0,-100.00,South,180,7.0,10.0,15,0.00,,,0.00,0.000000,,2013-05-05 08:11:00,
2013-05-05 01:21:00,78.0,27.0,-100.00,South,180,7.0,10.0,15,0.00,,,0.00,0.000000,,2013-05-05 08:21:00,
2013-05-05 01:31:00,78.0,27.0,-100.00,South,180,7.0,10.0,15,0.00,,,0.00,0.000000,,2013-05-05 08:31:00,
2013-05-05 01:42:00,78.0,27.0,-100.00,South,180,7.0,10.0,15,0.00,,,0.00,0.000000,,2013-05-05 08:42:00,
2013-05-05 02:11:00,76.0,22.0,-100.00,SW,216,6.0,14.0,13,0.00,,,0.00,0.000000,,2013-05-05 09:11:00,
2013-05-05 02:21:00,76.0,22.0,-100.00,SW,216,6.0,14.0,13,0.00,,,0.00,0.000000,,2013-05-05 09:21:00,
2013-05-05 02:32:00,76.0,22.0,-100.00,SW,216,6.0,14.0,13,0.00,,,0.00,0.000000,,2013-05-05 09:32:00,
2013-05-05 02:42:00,76.0,22.0,-100.00,SW,216,6.0,14.0,13,0.00,,,0.00,0.000000,,2013-05-05 09:42:00,
2013-05-05 03:12:00,73.0,26.0,-100.00,South,178,4.0,13.0,17,0.00,,,0.00,0.000000,,2013-05-05 10:12:00,
2013-05-05 03:22:00,73.0,26.0,-100.00,South,178,4.0,13.0,17,0.00,,,0.00,0.000000,,2013-05-05 10:22:00,
2013-05-05 03:32:00,73.0,26.0,-100.00,South,178,4.0,13.0,17,0.00,,,0.00,0.000000,,2013-05-05 10:32:00,
2013-05-05 03:42:00,73.0,26.0,-100.00,South,178,4.0,13.0,17,0.00,,,0.00,0.000000,,2013-05-05 10:42:00,
2013-05-05 04:12:00,71.0,28.0,-100.00,ESE,123,4.0,9.0,20,0.00,,,0.00,0.000000,,2013-05-05 11:12:00,
2013-05-05 04:21:00,71.0,28.0,-100.00,ESE,123,4.0,9.0,20,0.00,,,0.00,0.000000,,2013-05-05 11:21:00,
2013-05-05 04:32:00,71.0,28.0,-100.00,ESE,123,4.0,9.0,20,0.00,,,0.00,0.000000,,2013-05-05 11:32:00,
2013-05-05 04:42:00,71.0,28.0,-100.00,ESE,123,4.0,9.0,20,0.00,,,0.00,0.000000,,2013-05-05 11:42:00,
2013-05-05 05:11:00,69.0,26.0,-100.00,SSE,153,5.0,9.0,20,0.00,,,0.00,0.000000,,2013-05-05 12:11:00,
2013-05-05 05:21:00,69.0,26.0,-100.00,SSE,153,5.0,9.0,20,0.00,,,0.00,0.000000,,2013-05-05 12:21:00,
2013-05-05 05:31:00,69.0,26.0,-100.00,SSE,153,5.0,9.0,20,0.00,,,0.00,0.000000,,2013-05-05 12:31:00,
2013-05-05 05:42:00,69.0,26.0,-100.00,SSE,153,5.0,9.0,20,0.00,,,0.00,0.000000,,2013-05-05 12:42:00,
2013-05-05 06:11:00,69.0,27.0,-100.00,South,173,6.0,11.0,21,0.00,,,0.00,1.000000,,2013-05-05 13:11:00,
2013-05-05 06:21:00,69.0,27.0,-100.00,South,173,6.0,11.0,21,0.00,,,0.00,1.000000,,2013-05-05 13:21:00,
2013-05-05 06:32:00,69.0,27.0,-100.00,South,173,6.0,11.0,21,0.00,,,0.00,1.000000,,2013-05-05 13:32:00,
2013-05-05 06:42:00,69.0,27.0,-100.00,South,173,6.0,11.0,21,0.00,,,0.00,1.000000,,2013-05-05 13:42:00,
2013-05-05 07:11:00,69.0,30.0,-100.00,SE,140,6.0,10.0,23,0.00,,,0.00,38.000000,,2013-05-05 14:11:00,
2013-05-05 07:21:00,69.0,30.0,-100.00,SE,140,6.0,10.0,23,0.00,,,0.00,38.000000,,2013-05-05 14:21:00,
2013-05-05 07:31:00,69.0,30.0,-100.00,SE,140,6.0,10.0,23,0.00,,,0.00,38.000000,,2013-05-05 14:31:00,
2013-05-05 07:41:00,69.0,30.0,-100.00,SE,140,6.0,10.0,23,0.00,,,0.00,38.000000,,2013-05-05 14:41:00,
2013-05-05 08:11:00,73.0,30.0,-100.00,SE,145,6.0,11.0,20,0.00,,,0.00,152.000000,,2013-05-05 15:11:00,
2013-05-05 08:21:00,73.0,30.0,-100.00,SE,145,6.0,11.0,20,0.00,,,0.00,152.000000,,2013-05-05 15:21:00,
2013-05-05 08:32:00,73.0,30.0,-100.00,SE,145,6.0,11.0,20,0.00,,,0.00,152.000000,,2013-05-05 15:32:00,
2013-05-05 08:43:00,73.0,30.0,-100.00,SE,145,6.0,11.0,20,0.00,,,0.00,152.000000,,2013-05-05 15:43:00,
2013-05-05 09:12:00,79.0,30.0,-100.00,SE,144,8.0,14.0,17,0.00,,,0.00,510.000000,,2013-05-05 16:12:00,
2013-05-05 09:22:00,79.0,30.0,-100.00,SE,144,8.0,14.0,17,0.00,,,0.00,510.000000,,2013-05-05 16:22:00,
2013-05-05 09:32:00,79.0,30.0,-100.00,SE,144,8.0,14.0,17,0.00,,,0.00,510.000000,,2013-05-05 16:32:00,
2013-05-05 09:42:00,79.0,30.0,-100.00,SE,144,8.0,14.0,17,0.00,,,0.00,510.000000,,2013-05-05 16:42:00,
2013-05-05 10:12:00,79.0,34.0,-100.00,SE,139,7.0,16.0,20,0.00,,,0.00,582.000000,,2013-05-05 17:12:00,
2013-05-05 10:23:00,79.0,34.0,-100.00,SE,139,7.0,16.0,20,0.00,,,0.00,582.000000,,2013-05-05 17:23:00,
2013-05-05 10:31:00,79.0,34.0,-100.00,SE,139,7.0,16.0,20,0.00,,,0.00,582.000000,,2013-05-05 17:31:00,
2013-05-05 10:42:00,79.0,34.0,-100.00,SE,139,7.0,16.0,20,0.00,,,0.00,582.000000,,2013-05-05 17:42:00,
2013-05-05 11:11:00,80.0,38.0,-100.00,SSE,151,7.0,11.0,22,0.00,,,0.00,377.000000,,2013-05-05 18:11:00,
2013-05-05 11:21:00,80.0,38.0,-100.00,SSE,151,7.0,11.0,22,0.00,,,0.00,377.000000,,2013-05-05 18:21:00,
2013-05-05 11:41:00,80.0,38.0,-100.00,SSE,151,7.0,11.0,22,0.00,,,0.00,377.000000,,2013-05-05 18:41:00,
2013-05-05 12:11:00,80.0,34.0,-100.00,SSE,162,7.0,11.0,19,0.00,,,0.00,403.000000,,2013-05-05 19:11:00,
2013-05-05 12:21:00,80.0,34.0,-100.00,SSE,162,7.0,11.0,19,0.00,,,0.00,403.000000,,2013-05-05 19:21:00,
2013-05-05 12:32:00,80.0,34.0,-100.00,SSE,162,7.0,11.0,19,0.00,,,0.00,403.000000,,2013-05-05 19:32:00,
2013-05-05 12:41:00,80.0,34.0,-100.00,SSE,162,7.0,11.0,19,0.00,,,0.00,403.000000,,2013-05-05 19:41:00,
2013-05-05 13:11:00,85.0,35.0,-100.00,South,178,6.0,20.0,17,0.00,,,0.00,852.000000,,2013-05-05 20:11:00,
2013-05-05 13:21:00,85.0,35.0,-100.00,South,178,6.0,20.0,17,0.00,,,0.00,852.000000,,2013-05-05 20:21:00,
2013-05-05 13:31:00,85.0,35.0,-100.00,South,178,6.0,20.0,17,0.00,,,0.00,852.000000,,2013-05-05 20:31:00,
2013-05-05 13:41:00,85.0,35.0,-100.00,South,178,6.0,20.0,17,0.00,,,0.00,852.000000,,2013-05-05 20:41:00,
2013-05-05 14:11:00,87.0,32.0,-100.00,SSE,159,9.0,17.0,14,0.00,,,0.00,1032.000000,,2013-05-05 21:11:00,
2013-05-05 14:21:00,87.0,32.0,-100.00,SSE,159,9.0,17.0,14,0.00,,,0.00,1032.000000,,2013-05-05 21:21:00,
2013-05-05 14:32:00,87.0,32.0,-100.00,SSE,159,9.0,17.0,14,0.00,,,0.00,1032.000000,,2013-05-05 21:32:00,
2013-05-05 14:42:00,87.0,32.0,-100.00,SSE,159,9.0,17.0,14,0.00,,,0.00,1032.000000,,2013-05-05 21:42:00,
2013-05-05 15:12:00,88.0,35.0,-100.00,SSW,203,11.0,23.0,15,0.00,,,0.00,851.000000,,2013-05-05 22:12:00,
2013-05-05 15:22:00,88.0,35.0,-100.00,SSW,203,11.0,23.0,15,0.00,,,0.00,851.000000,,2013-05-05 22:22:00,
2013-05-05 15:33:00,88.0,35.0,-100.00,SSW,203,11.0,23.0,15,0.00,,,0.00,851.000000,,2013-05-05 22:33:00,
2013-05-05 15:41:00,88.0,35.0,-100.00,SSW,203,11.0,23.0,15,0.00,,,0.00,851.000000,,2013-05-05 22:41:00,
2013-05-05 16:11:00,89.0,34.0,-100.00,SW,231,9.0,19.0,14,0.00,,,0.00,583.000000,,2013-05-05 23:11:00,
2013-05-05 16:21:00,89.0,34.0,-100.00,SW,231,9.0,19.0,14,0.00,,,0.00,583.000000,,2013-05-05 23:21:00,
2013-05-05 16:32:00,89.0,34.0,-100.00,SW,231,9.0,19.0,14,0.00,,,0.00,583.000000,,2013-05-05 23:32:00,
2013-05-05 16:42:00,89.0,34.0,-100.00,SW,231,9.0,19.0,14,0.00,,,0.00,583.000000,,2013-05-05 23:42:00,
2013-05-05 17:11:00,87.0,37.0,-100.00,WSW,243,10.0,20.0,17,0.00,,,0.00,593.000000,,2013-05-06 00:11:00,
2013-05-05 17:21:00,87.0,37.0,-100.00,WSW,243,10.0,20.0,17,0.00,,,0.00,593.000000,,2013-05-06 00:21:00,
2013-05-05 17:31:00,87.0,37.0,-100.00,WSW,243,10.0,20.0,17,0.00,,,0.00,593.000000,,2013-05-06 00:31:00,
2013-05-05 17:41:00,87.0,37.0,-100.00,WSW,243,10.0,20.0,17,0.00,,,0.00,593.000000,,2013-05-06 00:41:00,
2013-05-05 18:11:00,83.0,38.0,-100.00,West,261,16.0,24.0,20,0.00,,,0.00,335.000000,,2013-05-06 01:11:00,
2013-05-05 18:21:00,83.0,38.0,-100.00,West,261,16.0,24.0,20,0.00,,,0.00,335.000000,,2013-05-06 01:21:00,
2013-05-05 18:31:00,83.0,38.0,-100.00,West,261,16.0,24.0,20,0.00,,,0.00,335.000000,,2013-05-06 01:31:00,
2013-05-05 18:41:00,83.0,38.0,-100.00,West,261,16.0,24.0,20,0.00,,,0.00,335.000000,,2013-05-06 01:41:00,
2013-05-05 19:12:00,80.0,38.0,-100.00,WSW,247,15.0,22.0,22,0.00,,,0.00,103.000000,,2013-05-06 02:12:00,
2013-05-05 19:21:00,80.0,38.0,-100.00,WSW,247,15.0,22.0,22,0.00,,,0.00,103.000000,,2013-05-06 02:21:00,
2013-05-05 19:32:00,80.0,38.0,-100.00,WSW,247,15.0,22.0,22,0.00,,,0.00,103.000000,,2013-05-06 02:32:00,
2013-05-05 19:42:00,80.0,38.0,-100.00,WSW,247,15.0,22.0,22,0.00,,,0.00,103.000000,,2013-05-06 02:42:00,
2013-05-05 20:11:00,77.0,39.0,-100.00,WSW,246,15.0,25.0,26,0.00,,,0.00,24.000000,,2013-05-06 03:11:00,
2013-05-05 20:22:00,77.0,39.0,-100.00,WSW,246,15.0,25.0,26,0.00,,,0.00,24.000000,,2013-05-06 03:22:00,
2013-05-05 20:33:00,77.0,39.0,-100.00,WSW,246,15.0,25.0,26,0.00,,,0.00,24.000000,,2013-05-06 03:33:00,
2013-05-05 20:42:00,77.0,39.0,-100.00,WSW,246,15.0,25.0,26,0.00,,,0.00,24.000000,,2013-05-06 03:42:00,
2013-05-05 21:12:00,73.0,42.0,-100.00,SW,228,13.0,27.0,33,0.00,,,0.00,0.000000,,2013-05-06 04:12:00,
2013-05-05 21:23:00,73.0,42.0,-100.00,SW,228,13.0,27.0,33,0.00,,,0.00,0.000000,,2013-05-06 04:23:00,
2013-05-05 21:32:00,73.0,42.0,-100.00,SW,228,13.0,27.0,33,0.00,,,0.00,0.000000,,2013-05-06 04:32:00,
2013-05-05 21:42:00,73.0,42.0,-100.00,SW,228,13.0,27.0,33,0.00,,,0.00,0.000000,,2013-05-06 04:42:00,
2013-05-05 22:12:00,72.0,42.0,-100.00,SSW,200,8.0,23.0,34,0.00,,,0.00,0.000000,,2013-05-06 05:12:00,
2013-05-05 22:22:00,72.0,42.0,-100.00,SSW,200,8.0,23.0,34,0.00,,,0.00,0.000000,,2013-05-06 05:22:00,
2013-05-05 22:32:00,72.0,42.0,-100.00,SSW,200,8.0,23.0,34,0.00,,,0.00,0.000000,,2013-05-06 05:32:00,
2013-05-05 22:42:00,72.0,42.0,-100.00,SSW,200,8.0,23.0,34,0.00,,,0.00,0.000000,,2013-05-06 05:42:00,
2013-05-05 23:12:00,69.0,46.0,-100.00,WSW,238,9.0,14.0,43,0.00,,,0.00,0.000000,,2013-05-06 06:12:00,
2013-05-05 23:21:00,69.0,46.0,-100.00,WSW,238,9.0,14.0,43,0.00,,,0.00,0.000000,,2013-05-06 06:21:00,
2013-05-05 23:31:00,69.0,46.0,-100.00,WSW,238,9.0,14.0,43,0.00,,,0.00,0.000000,,2013-05-06 06:31:00,
2013-05-05 23:41:00,69.0,46.0,-100.00,WSW,238,9.0,14.0,43,0.00,,,0.00,0.000000,,2013-05-06 06:41:00,